Tracking 28794 objects as of 19-Apr-2024
HD Live streaming from Space Station
objects crossing your sky now

DELTA 1 DEB

Track DELTA 1 DEB now!
10-day predictions


NORAD ID: 42650
Int'l Code: 1975-052MK
Perigee: 928.6 km
Apogee: 1,287.0 km
Inclination: 99.7 °
Period: 107.3 minutes
Semi major axis: 7478 km
RCS: Unknown
Launch date: June 12, 1975
Source: United States (US)
Launch site: AIR FORCE WESTERN TEST RANGE (AFWTR)

Note: This is SATELLITE DEBRIS
Your satellite tracking list
Your tracking list is empty




NASA's NSSDC Master Catalog

Two Line Element Set (TLE):
1 42650U 75052MK  24108.20600903  .00002342  00000-0  35633-2 0  9994
2 42650  99.7335 241.0757 0239630 159.3377 323.4048 13.42320206508739
Source of the keplerian elements: AFSPC